| time (UTC) | temp F | wind direction | speed MPH | gust MPH | rain 1hr in | rain 24hr in | rain mn in | humidity % | barometer mb |
| 20260503021459 | 56 | 135 | 0.0 | 0.0 | 0.00 | 0.03 | 0.03 | 95 | 1011.9 |
| 20260503021447 | 56 | 135 | 0.0 | 0.0 | 0.00 | 0.03 | 0.03 | 95 | 1012.0 |
| 20260503020953 | 56 | 135 | 0.0 | 1.0 | 0.00 | 0.03 | 0.03 | 95 | 1011.7 |
| 20260503020925 | 56 | 135 | 0.0 | 1.0 | 0.00 | 0.03 | 0.03 | 95 | 1011.8 |
| 20260503020659 | 56 | 135 | 0.0 | 1.0 | 0.00 | 0.03 | 0.03 | 95 | 1011.8 |
| 20260503015941 | 56 | 135 | 0.0 | 0.0 | 0.00 | 0.03 | 0.03 | 95 | 1012.0 |
| 20260503015435 | 56 | 135 | 0.0 | 1.0 | 0.00 | 0.03 | 0.03 | 95 | 1011.9 |
| 20260503014930 | 56 | 135 | 0.0 | 1.0 | 0.00 | 0.03 | 0.03 | 95 | 1012.0 |
| 20260503014423 | 56 | 135 | 0.0 | 1.0 | 0.00 | 0.03 | 0.03 | 95 | 1012.1 |
| 20260503013917 | 56 | 135 | 0.0 | 1.0 | 0.00 | 0.03 | 0.03 | 95 | 1012.1 |
| 20260503013449 | 56 | 135 | 0.0 | 1.0 | 0.00 | 0.03 | 0.03 | 95 | 1012.0 |
| 20260503013411 | 56 | 135 | 0.0 | 1.0 | 0.00 | 0.03 | 0.03 | 95 | 1012.0 |
| 20260503012905 | 56 | 135 | 0.0 | 0.0 | 0.00 | 0.03 | 0.03 | 95 | 1012.0 |
| 20260503012441 | 56 | 135 | 0.0 | 0.0 | 0.00 | 0.03 | 0.03 | 95 | 1011.9 |
| 20260503012359 | 56 | 135 | 0.0 | 0.0 | 0.00 | 0.03 | 0.03 | 95 | 1011.9 |
| 20260503011853 | 56 | 135 | 0.0 | 0.0 | 0.00 | 0.03 | 0.03 | 95 | 1011.9 |
| 20260503011441 | 56 | 135 | 0.0 | 0.0 | 0.00 | 0.03 | 0.03 | 95 | 1011.9 |
| 20260503011350 | 56 | 135 | 0.0 | 0.0 | 0.00 | 0.03 | 0.03 | 95 | 1011.9 |
| 20260503010842 | 56 | 135 | 0.0 | 1.0 | 0.00 | 0.03 | 0.03 | 95 | 1012.1 |
| 20260503010442 | 56 | 135 | 0.0 | 2.0 | 0.00 | 0.03 | 0.03 | 94 | 1012.1 |
| 20260503010335 | 56 | 135 | 0.0 | 2.0 | 0.00 | 0.03 | 0.03 | 94 | 1012.2 |
| 20260503005829 | 56 | 135 | 0.0 | 2.0 | 0.00 | 0.03 | 0.03 | 94 | 1012.2 |
| 20260503005441 | 56 | 135 | 0.0 | 1.0 | 0.00 | 0.03 | 0.03 | 94 | 1012.2 |
| 20260503005323 | 56 | 135 | 0.0 | 1.0 | 0.00 | 0.03 | 0.03 | 94 | 1012.2 |
| 20260503004818 | 56 | 135 | 0.0 | 1.0 | 0.00 | 0.03 | 0.03 | 94 | 1012.2 |
| 20260503004442 | 56 | 135 | 0.0 | 1.0 | 0.00 | 0.03 | 0.03 | 94 | 1012.1 |
| 20260503004311 | 56 | 135 | 0.0 | 1.0 | 0.00 | 0.03 | 0.03 | 94 | 1012.0 |
| 20260503003804 | 56 | 134 | 0.0 | 0.0 | 0.00 | 0.03 | 0.03 | 94 | 1011.9 |
| 20260503003442 | 56 | 134 | 0.0 | 2.0 | 0.00 | 0.03 | 0.03 | 94 | 1012.0 |
| 20260503003259 | 56 | 134 | 0.0 | 2.0 | 0.00 | 0.03 | 0.03 | 94 | 1012.1 |
| 20260503002753 | 56 | 134 | 0.0 | 2.0 | 0.00 | 0.03 | 0.03 | 94 | 1012.2 |
| 20260503002436 | 56 | 134 | 0.0 | 1.0 | 0.00 | 0.03 | 0.03 | 94 | 1012.3 |
| 20260503002247 | 56 | 134 | 0.0 | 1.0 | 0.00 | 0.03 | 0.03 | 94 | 1012.2 |
| 20260503001740 | 56 | 134 | 0.0 | 2.0 | 0.00 | 0.03 | 0.03 | 94 | 1012.4 |
| 20260503001436 | 56 | 134 | 0.0 | 2.0 | 0.01 | 0.03 | 0.03 | 94 | 1012.3 |
| 20260503001354 | 56 | 134 | 0.0 | 2.0 | 0.01 | 0.03 | 0.03 | 93 | 1012.5 |
| 20260503001235 | 56 | 134 | 0.0 | 2.0 | 0.01 | 0.03 | 0.03 | 94 | 1012.4 |
| 20260503000729 | 56 | 134 | 0.0 | 1.0 | 0.01 | 0.03 | 0.03 | 93 | 1012.4 |
| 20260503000225 | 56 | 134 | 0.0 | 2.0 | 0.01 | 0.03 | 0.03 | 93 | 1012.5 |
| 20260502235724 | 56 | 134 | 1.0 | 3.0 | 0.02 | 0.03 | 0.03 | 93 | 1012.5 |
| 20260502235433 | 56 | 134 | 1.0 | 5.0 | 0.02 | 0.03 | 0.03 | 93 | 1012.6 |
| 20260502235225 | 56 | 134 | 2.0 | 5.0 | 0.02 | 0.03 | 0.03 | 93 | 1012.6 |
| 20260502234725 | 56 | 111 | 2.0 | 5.0 | 0.03 | 0.03 | 0.03 | 93 | 1012.5 |
| 20260502234433 | 56 | 111 | 1.0 | 5.0 | 0.03 | 0.03 | 0.03 | 93 | 1012.5 |
| 20260502234223 | 56 | 66 | 2.0 | 6.0 | 0.03 | 0.03 | 0.03 | 93 | 1012.6 |
| 20260502233722 | 56 | 107 | 2.0 | 9.0 | 0.03 | 0.03 | 0.03 | 93 | 1012.7 |
| 20260502233433 | 56 | 112 | 3.0 | 9.0 | 0.03 | 0.03 | 0.03 | 93 | 1012.8 |
| 20260502233221 | 56 | 108 | 3.0 | 9.0 | 0.03 | 0.03 | 0.03 | 93 | 1012.8 |
| 20260502232722 | 56 | 108 | 3.0 | 9.0 | 0.03 | 0.03 | 0.03 | 93 | 1013.0 |
| 20260502232432 | 56 | 66 | 3.0 | 9.0 | 0.03 | 0.03 | 0.03 | 93 | 1013.0 |
| 20260502232223 | 56 | 167 | 4.0 | 10.0 | 0.03 | 0.03 | 0.03 | 93 | 1013.0 |
| 20260502231722 | 57 | 150 | 4.0 | 10.0 | 0.03 | 0.03 | 0.03 | 93 | 1013.3 |
| 20260502231433 | 57 | 117 | 5.0 | 10.0 | 0.02 | 0.02 | 0.02 | 93 | 1013.2 |
| 20260502231222 | 57 | 112 | 4.0 | 10.0 | 0.02 | 0.02 | 0.02 | 93 | 1013.4 |
| 20260502230723 | 57 | 150 | 5.0 | 11.0 | 0.02 | 0.02 | 0.02 | 93 | 1013.6 |
| 20260502230436 | 57 | 156 | 4.0 | 11.0 | 0.02 | 0.02 | 0.02 | 93 | 1013.5 |
| 20260502230223 | 57 | 107 | 4.0 | 11.0 | 0.02 | 0.02 | 0.02 | 93 | 1013.5 |
| 20260502225722 | 57 | 99 | 3.0 | 10.0 | 0.02 | 0.02 | 0.02 | 93 | 1013.4 |
| 20260502225431 | 57 | 113 | 3.0 | 8.0 | 0.01 | 0.01 | 0.01 | 93 | 1013.5 |
| 20260502225221 | 57 | 89 | 3.0 | 6.0 | 0.01 | 0.01 | 0.01 | 92 | 1013.7 |
| 20260502224723 | 57 | 101 | 2.0 | 6.0 | 0.00 | 0.00 | 0.00 | 92 | 1014.0 |
| 20260502224432 | 57 | 98 | 1.0 | 6.0 | 0.00 | 0.00 | 0.00 | 92 | 1014.1 |
| 20260502224222 | 57 | 99 | 1.0 | 4.0 | 0.00 | 0.00 | 0.00 | 92 | 1014.2 |
| 20260502223721 | 56 | 163 | 1.0 | 4.0 | 0.00 | 0.00 | 0.00 | 92 | 1014.4 |
| 20260502223431 | 56 | 47 | 2.0 | 4.0 | 0.00 | 0.00 | 0.00 | 92 | 1014.6 |
| 20260502223222 | 56 | 316 | 2.0 | 5.0 | 0.00 | 0.00 | 0.00 | 92 | 1014.4 |
| 20260502222722 | 56 | 330 | 4.0 | 12.0 | 0.00 | 0.00 | 0.00 | 92 | 1014.7 |
| 20260502222431 | 56 | 295 | 5.0 | 12.0 | 0.00 | 0.00 | 0.00 | 92 | 1014.8 |
| 20260502222222 | 55 | 310 | 4.0 | 12.0 | 0.00 | 0.00 | 0.00 | 91 | 1014.7 |
| 20260502221722 | 55 | 266 | 2.0 | 11.0 | 0.00 | 0.00 | 0.00 | 91 | 1015.0 |
| 20260502221431 | 55 | 110 | 1.0 | 4.0 | 0.00 | 0.00 | 0.00 | 90 | 1013.8 |
| 20260502221359 | 55 | 106 | 1.0 | 4.0 | 0.00 | 0.00 | 0.00 | 89 | 1013.4 |
| 20260502221222 | 55 | 110 | 1.0 | 4.0 | 0.00 | 0.00 | 0.00 | 90 | 1013.8 |
| 20260502220722 | 55 | 106 | 1.0 | 4.0 | 0.00 | 0.00 | 0.00 | 89 | 1013.5 |
| 20260502220221 | 55 | 113 | 1.0 | 4.0 | 0.00 | 0.00 | 0.00 | 89 | 1013.4 |
| 20260502215719 | 55 | 117 | 1.0 | 4.0 | 0.00 | 0.00 | 0.00 | 89 | 1013.4 |
| 20260502215427 | 55 | 71 | 1.0 | 4.0 | 0.00 | 0.00 | 0.00 | 89 | 1013.4 |
| 20260502215223 | 55 | 102 | 1.0 | 4.0 | 0.00 | 0.00 | 0.00 | 89 | 1013.5 |
| 20260502214720 | 55 | 83 | 1.0 | 3.0 | 0.00 | 0.00 | 0.00 | 89 | 1013.5 |
| 20260502214429 | 55 | 102 | 1.0 | 3.0 | 0.00 | 0.00 | 0.00 | 89 | 1013.5 |
| 20260502214222 | 55 | 79 | 1.0 | 3.0 | 0.00 | 0.00 | 0.00 | 89 | 1013.5 |
| 20260502213720 | 55 | 80 | 1.0 | 3.0 | 0.00 | 0.00 | 0.00 | 89 | 1013.6 |
| 20260502213424 | 55 | 106 | 0.0 | 3.0 | 0.00 | 0.00 | 0.00 | 89 | 1013.7 |
| 20260502213220 | 55 | 106 | 1.0 | 3.0 | 0.00 | 0.00 | 0.00 | 89 | 1013.6 |
| 20260502212718 | 55 | 106 | 0.0 | 3.0 | 0.00 | 0.00 | 0.00 | 88 | 1013.6 |
| 20260502212423 | 55 | 108 | 0.0 | 3.0 | 0.00 | 0.00 | 0.00 | 88 | 1013.7 |
| 20260502212217 | 55 | 102 | 0.0 | 3.0 | 0.00 | 0.00 | 0.00 | 88 | 1013.6 |
| 20260502211717 | 55 | 111 | 0.0 | 0.0 | 0.00 | 0.00 | 0.00 | 88 | 1013.9 |
| 20260502211422 | 55 | 112 | 0.0 | 2.0 | 0.00 | 0.00 | 0.00 | 88 | 1014.0 |
| 20260502211218 | 55 | 112 | 0.0 | 2.0 | 0.00 | 0.00 | 0.00 | 88 | 1014.0 |
| 20260502210910 | 55 | 91 | 0.0 | 3.0 | 0.00 | 0.00 | 0.00 | 88 | 1014.1 |
| 20260502210718 | 55 | 117 | 0.0 | 3.0 | 0.00 | 0.00 | 0.00 | 88 | 1014.0 |
| 20260502210220 | 55 | 93 | 0.0 | 3.0 | 0.00 | 0.00 | 0.00 | 87 | 1014.1 |
| 20260502205717 | 55 | 93 | 0.0 | 2.0 | 0.00 | 0.00 | 0.00 | 87 | 1014.1 |
| 20260502205421 | 56 | 93 | 0.0 | 2.0 | 0.00 | 0.00 | 0.00 | 87 | 1014.2 |
| 20260502205217 | 56 | 93 | 0.0 | 2.0 | 0.00 | 0.00 | 0.00 | 87 | 1014.2 |
| 20260502204816 | 56 | 102 | 1.0 | 4.0 | 0.00 | 0.00 | 0.00 | 87 | 1014.5 |
| 20260502204718 | 56 | 79 | 0.0 | 0.0 | 0.00 | 0.00 | 0.00 | 87 | 1014.2 |
| 20260502204603 | 56 | 98 | 0.0 | 2.0 | 0.00 | 0.00 | 0.00 | 87 | 1014.2 |
| 20260502204217 | 56 | 98 | 0.0 | 3.0 | 0.00 | 0.00 | 0.00 | 87 | 1014.2 |
| 20260502203718 | 56 | 102 | 1.0 | 3.0 | 0.00 | 0.00 | 0.00 | 87 | 1014.4 |
| 20260502203216 | 56 | 102 | 1.0 | 4.0 | 0.00 | 0.00 | 0.00 | 87 | 1014.5 |
| 20260502202910 | 56 | 58 | 1.0 | 3.0 | 0.00 | 0.00 | 0.00 | 87 | 1014.4 |
| 20260502202717 | 56 | 82 | 1.0 | 4.0 | 0.00 | 0.00 | 0.00 | 87 | 1014.5 |
| 20260502202218 | 56 | 45 | 1.0 | 3.0 | 0.00 | 0.00 | 0.00 | 87 | 1014.4 |
| 20260502201716 | 56 | 2 | 1.0 | 3.0 | 0.00 | 0.00 | 0.00 | 87 | 1014.6 |
| 20260502201426 | 56 | 68 | 1.0 | 4.0 | 0.00 | 0.00 | 0.00 | 87 | 1014.7 |
| 20260502201216 | 56 | 108 | 1.0 | 4.0 | 0.00 | 0.00 | 0.00 | 86 | 1014.7 |
| 20260502200718 | 57 | 80 | 0.0 | 4.0 | 0.00 | 0.00 | 0.00 | 87 | 1014.7 |
| 20260502200418 | 57 | 78 | 0.0 | 2.0 | 0.00 | 0.00 | 0.00 | 87 | 1014.7 |
| 20260502200216 | 57 | 68 | 0.0 | 2.0 | 0.00 | 0.00 | 0.00 | 87 | 1014.7 |
| 20260502195900 | 57 | 359 | 0.0 | 2.0 | 0.00 | 0.00 | 0.00 | 87 | 1014.8 |
| 20260502195711 | 57 | 359 | 0.0 | 2.0 | 0.00 | 0.00 | 0.00 | 87 | 1014.8 |
| 20260502195205 | 57 | 359 | 0.0 | 2.0 | 0.00 | 0.00 | 0.00 | 87 | 1014.8 |
| 20260502194700 | 57 | 117 | 0.0 | 3.0 | 0.00 | 0.00 | 0.00 | 86 | 1014.8 |
| 20260502194417 | 57 | 117 | 0.0 | 3.0 | 0.00 | 0.00 | 0.00 | 86 | 1014.8 |
| 20260502194153 | 57 | 117 | 0.0 | 3.0 | 0.00 | 0.00 | 0.00 | 86 | 1014.8 |
| 20260502193652 | 58 | 108 | 0.0 | 3.0 | 0.00 | 0.00 | 0.00 | 85 | 1014.8 |
| 20260502193416 | 58 | 110 | 1.0 | 3.0 | 0.00 | 0.00 | 0.00 | 85 | 1014.8 |
| 20260502193148 | 58 | 21 | 1.0 | 3.0 | 0.00 | 0.00 | 0.00 | 85 | 1014.7 |
| 20260502192649 | 58 | 27 | 1.0 | 3.0 | 0.00 | 0.00 | 0.00 | 85 | 1014.8 |
| 20260502192415 | 58 | 351 | 1.0 | 3.0 | 0.00 | 0.00 | 0.00 | 84 | 1014.8 |
| 20260502192149 | 58 | 23 | 1.0 | 4.0 | 0.00 | 0.00 | 0.00 | 84 | 1014.8 |
| 20260502191648 | 59 | 358 | 1.0 | 4.0 | 0.00 | 0.00 | 0.00 | 84 | 1014.8 |
| 20260502191415 | 59 | 23 | 1.0 | 4.0 | 0.00 | 0.00 | 0.00 | 84 | 1014.9 |
| 20260502191149 | 59 | 12 | 1.0 | 3.0 | 0.00 | 0.00 | 0.00 | 84 | 1014.8 |
| 20260502190647 | 59 | 49 | 1.0 | 4.0 | 0.00 | 0.00 | 0.00 | 83 | 1014.9 |
| 20260502190416 | 59 | 53 | 1.0 | 4.0 | 0.00 | 0.00 | 0.00 | 83 | 1014.9 |
| 20260502190146 | 59 | 54 | 1.0 | 4.0 | 0.00 | 0.00 | 0.00 | 83 | 1015.0 |
| 20260502185645 | 60 | 51 | 1.0 | 3.0 | 0.00 | 0.00 | 0.00 | 82 | 1014.9 |
| 20260502185413 | 60 | 19 | 0.0 | 3.0 | 0.00 | 0.00 | 0.00 | 82 | 1014.8 |
| 20260502185146 | 60 | 18 | 1.0 | 3.0 | 0.00 | 0.00 | 0.00 | 82 | 1014.9 |
| 20260502184643 | 60 | 16 | 1.0 | 4.0 | 0.00 | 0.00 | 0.00 | 81 | 1014.9 |
| 20260502184415 | 60 | 16 | 1.0 | 4.0 | 0.00 | 0.00 | 0.00 | 81 | 1014.9 |
| 20260502184144 | 60 | 10 | 1.0 | 4.0 | 0.00 | 0.00 | 0.00 | 81 | 1014.8 |
| 20260502183900 | 61 | 8 | 1.0 | 4.0 | 0.00 | 0.00 | 0.00 | 80 | 1014.9 |
| 20260502183701 | 61 | 45 | 1.0 | 3.0 | 0.00 | 0.00 | 0.00 | 80 | 1014.8 |
| 20260502183142 | 61 | 358 | 1.0 | 4.0 | 0.00 | 0.00 | 0.00 | 79 | 1014.9 |
| 20260502182642 | 61 | 357 | 1.0 | 4.0 | 0.00 | 0.00 | 0.00 | 79 | 1014.8 |
| 20260502182414 | 61 | 44 | 2.0 | 5.0 | 0.00 | 0.00 | 0.00 | 78 | 1014.8 |
| 20260502182144 | 61 | 343 | 2.0 | 7.0 | 0.00 | 0.00 | 0.00 | 78 | 1014.9 |
| 20260502181643 | 62 | 63 | 2.0 | 7.0 | 0.00 | 0.00 | 0.00 | 77 | 1014.9 |
| 20260502181414 | 62 | 11 | 2.0 | 7.0 | 0.00 | 0.00 | 0.00 | 77 | 1014.9 |
| 20260502181137 | 62 | 9 | 2.0 | 6.0 | 0.00 | 0.00 | 0.00 | 76 | 1014.9 |
| 20260502180631 | 62 | 5 | 2.0 | 6.0 | 0.00 | 0.00 | 0.00 | 76 | 1014.9 |
| 20260502180415 | 62 | 71 | 2.0 | 7.0 | 0.00 | 0.00 | 0.00 | 75 | 1014.9 |
| 20260502180125 | 62 | 62 | 2.0 | 7.0 | 0.00 | 0.00 | 0.00 | 74 | 1015.0 |
| 20260502170519 | 67 | 246 | 1.0 | 4.0 | 0.00 | 0.00 | 0.00 | 57 | 1015.4 |
| 20260502170407 | 67 | 113 | 1.0 | 4.0 | 0.00 | 0.00 | 0.00 | 57 | 1015.5 |
| 20260502163952 | 67 | 248 | 2.0 | 7.0 | 0.00 | 0.00 | 0.00 | 50 | 1015.7 |
| 20260502163443 | 67 | 41 | 2.0 | 6.0 | 0.00 | 0.00 | 0.00 | 52 | 1015.8 |
| 20260502163407 | 67 | 23 | 2.0 | 6.0 | 0.00 | 0.00 | 0.00 | 52 | 1015.8 |
| 20260502162940 | 67 | 233 | 2.0 | 7.0 | 0.00 | 0.00 | 0.00 | 53 | 1015.8 |
| 20260502162431 | 67 | 260 | 3.0 | 7.0 | 0.00 | 0.00 | 0.00 | 54 | 1015.8 |
| 20260502162408 | 67 | 297 | 3.0 | 7.0 | 0.00 | 0.00 | 0.00 | 54 | 1015.8 |
| 20260502161926 | 67 | 260 | 2.0 | 7.0 | 0.00 | 0.00 | 0.00 | 51 | 1015.9 |
| 20260502161425 | 67 | 243 | 3.0 | 7.0 | 0.00 | 0.00 | 0.00 | 50 | 1015.9 |
| 20260502161407 | 67 | 212 | 3.0 | 7.0 | 0.00 | 0.00 | 0.00 | 50 | 1015.9 |
| 20260502160925 | 67 | 240 | 3.0 | 7.0 | 0.00 | 0.00 | 0.00 | 52 | 1015.9 |
| 20260502160425 | 67 | 216 | 3.0 | 9.0 | 0.00 | 0.00 | 0.00 | 54 | 1015.9 |
| 20260502160409 | 67 | 247 | 3.0 | 9.0 | 0.00 | 0.00 | 0.00 | 54 | 1015.9 |
| 20260502151925 | 66 | 256 | 5.0 | 10.0 | 0.00 | 0.00 | 0.00 | 53 | 1016.2 |
| 20260502151424 | 66 | 285 | 5.0 | 10.0 | 0.00 | 0.00 | 0.00 | 53 | 1016.4 |
| 20260502151405 | 67 | 225 | 5.0 | 10.0 | 0.00 | 0.00 | 0.00 | 53 | 1016.4 |
| 20260502150926 | 67 | 262 | 5.0 | 9.0 | 0.00 | 0.00 | 0.00 | 53 | 1016.4 |
| 20260502150425 | 67 | 271 | 5.0 | 9.0 | 0.00 | 0.00 | 0.00 | 54 | 1016.4 |
| 20260502150405 | 67 | 239 | 5.0 | 9.0 | 0.00 | 0.00 | 0.00 | 54 | 1016.4 |
| 20260502130403 | 66 | 277 | 7.0 | 14.0 | 0.00 | 0.00 | 0.00 | 70 | 1017.3 |
| 20260502123411 | 66 | 258 | 8.0 | 17.0 | 0.00 | 0.00 | 0.00 | 76 | 1017.6 |
| 20260502123407 | 66 | 256 | 8.0 | 17.0 | 0.00 | 0.00 | 0.00 | 76 | 1017.6 |
| 20260502122903 | 66 | 248 | 7.0 | 12.0 | 0.00 | 0.00 | 0.00 | 76 | 1017.6 |
| 20260502122409 | 66 | 233 | 8.0 | 12.0 | 0.00 | 0.00 | 0.00 | 75 | 1017.6 |
| 20260502122403 | 66 | 262 | 8.0 | 13.0 | 0.00 | 0.00 | 0.00 | 75 | 1017.6 |
| 20260502122327 | 66 | 248 | 9.0 | 15.0 | 0.00 | 0.00 | 0.00 | 76 | 1017.8 |
| 20260502122105 | 66 | 281 | 9.0 | 14.0 | 0.00 | 0.00 | 0.00 | 77 | 1017.8 |
| 20260502121616 | 66 | 248 | 9.0 | 15.0 | 0.00 | 0.00 | 0.00 | 76 | 1017.8 |
| 20260502121328 | 67 | 281 | 8.0 | 13.0 | 0.00 | 0.00 | 0.00 | 76 | 1017.8 |
| 20260502121100 | 67 | 241 | 8.0 | 15.0 | 0.00 | 0.00 | 0.00 | 76 | 1017.7 |
| 20260502120357 | 67 | 271 | 8.0 | 13.0 | 0.00 | 0.00 | 0.00 | 76 | 1017.8 |
| 20260502115855 | 67 | 264 | 8.0 | 13.0 | 0.00 | 0.00 | 0.00 | 76 | 1017.8 |
| 20260502115402 | 67 | 252 | 7.0 | 13.0 | 0.00 | 0.00 | 0.00 | 76 | 1017.8 |
| 20260502115355 | 67 | 276 | 7.0 | 13.0 | 0.00 | 0.00 | 0.00 | 76 | 1017.8 |
| 20260502114853 | 67 | 252 | 7.0 | 12.0 | 0.00 | 0.00 | 0.00 | 78 | 1017.8 |
| 20260502114404 | 67 | 253 | 7.0 | 12.0 | 0.00 | 0.00 | 0.00 | 77 | 1017.8 |
| 20260502114351 | 67 | 252 | 7.0 | 12.0 | 0.00 | 0.00 | 0.00 | 77 | 1017.9 |
| 20260502113851 | 67 | 263 | 7.0 | 13.0 | 0.00 | 0.00 | 0.00 | 76 | 1017.8 |
| 20260502113400 | 67 | 234 | 7.0 | 13.0 | 0.00 | 0.00 | 0.00 | 77 | 1017.8 |
| 20260502113351 | 67 | 277 | 7.0 | 13.0 | 0.00 | 0.00 | 0.00 | 77 | 1017.9 |
| 20260502112849 | 67 | 267 | 7.0 | 13.0 | 0.00 | 0.00 | 0.00 | 77 | 1017.9 |
| 20260502112402 | 66 | 257 | 7.0 | 13.0 | 0.00 | 0.00 | 0.00 | 78 | 1017.9 |
| 20260502112350 | 66 | 253 | 7.0 | 13.0 | 0.00 | 0.00 | 0.00 | 77 | 1017.9 |
| 20260502111849 | 66 | 253 | 7.0 | 11.0 | 0.00 | 0.00 | 0.00 | 78 | 1017.8 |
| 20260502111401 | 66 | 239 | 7.0 | 11.0 | 0.00 | 0.00 | 0.00 | 78 | 1017.9 |
| 20260502111349 | 66 | 245 | 7.0 | 11.0 | 0.00 | 0.00 | 0.00 | 78 | 1018.0 |
| 20260502110849 | 66 | 267 | 8.0 | 13.0 | 0.00 | 0.00 | 0.00 | 78 | 1018.0 |
| 20260502110402 | 66 | 261 | 7.0 | 13.0 | 0.00 | 0.00 | 0.00 | 80 | 1018.0 |
| 20260502110349 | 66 | 266 | 7.0 | 13.0 | 0.00 | 0.00 | 0.00 | 80 | 1018.0 |
| 20260502105850 | 66 | 270 | 7.0 | 15.0 | 0.00 | 0.00 | 0.00 | 81 | 1018.0 |
| 20260502105400 | 65 | 272 | 8.0 | 15.0 | 0.00 | 0.00 | 0.00 | 81 | 1018.0 |
| 20260502105347 | 65 | 255 | 8.0 | 15.0 | 0.00 | 0.00 | 0.00 | 81 | 1018.0 |
| 20260502104848 | 65 | 241 | 8.0 | 14.0 | 0.00 | 0.00 | 0.00 | 80 | 1018.0 |
| 20260502104400 | 66 | 248 | 8.0 | 12.0 | 0.00 | 0.00 | 0.00 | 80 | 1018.0 |
| 20260502104345 | 66 | 262 | 8.0 | 12.0 | 0.00 | 0.00 | 0.00 | 80 | 1018.1 |
| 20260502103839 | 66 | 257 | 8.0 | 14.0 | 0.00 | 0.00 | 0.00 | 80 | 1017.9 |
| 20260502103402 | 66 | 254 | 8.0 | 14.0 | 0.00 | 0.00 | 0.00 | 79 | 1018.1 |
| 20260502103330 | 67 | 264 | 8.0 | 14.0 | 0.00 | 0.00 | 0.00 | 79 | 1018.1 |
| 20260502102826 | 66 | 257 | 8.0 | 14.0 | 0.00 | 0.00 | 0.00 | 80 | 1018.0 |
| 20260502102401 | 66 | 263 | 8.0 | 14.0 | 0.00 | 0.00 | 0.00 | 80 | 1018.0 |
| 20260502102318 | 66 | 216 | 8.0 | 14.0 | 0.00 | 0.00 | 0.00 | 80 | 1018.1 |
| 20260502101813 | 67 | 265 | 6.0 | 11.0 | 0.00 | 0.00 | 0.00 | 80 | 1018.0 |
| 20260502101401 | 67 | 282 | 6.0 | 11.0 | 0.00 | 0.00 | 0.00 | 82 | 1017.9 |
| 20260502101318 | 65 | 287 | 6.0 | 11.0 | 0.00 | 0.00 | 0.00 | 83 | 1017.9 |
| 20260502101306 | 67 | 265 | 5.0 | 11.0 | 0.00 | 0.00 | 0.00 | 82 | 1018.0 |
| 20260502100800 | 66 | 283 | 5.0 | 11.0 | 0.00 | 0.00 | 0.00 | 83 | 1017.9 |
| 20260502100254 | 65 | 262 | 6.0 | 11.0 | 0.00 | 0.00 | 0.00 | 83 | 1018.0 |
| 20260502091355 | 61 | 254 | 3.0 | 6.0 | 0.00 | 0.00 | 0.00 | 89 | 1018.1 |
| 20260502091154 | 61 | 255 | 3.0 | 6.0 | 0.00 | 0.00 | 0.00 | 89 | 1018.1 |
| 20260502090648 | 60 | 259 | 2.0 | 4.0 | 0.00 | 0.00 | 0.00 | 89 | 1018.0 |
| 20260502090354 | 60 | 257 | 2.0 | 4.0 | 0.00 | 0.00 | 0.00 | 88 | 1018.0 |
| 20260502090142 | 60 | 261 | 2.0 | 4.0 | 0.00 | 0.00 | 0.00 | 88 | 1017.9 |
| 20260502071526 | 58 | 266 | 1.0 | 3.0 | 0.00 | 0.00 | 0.00 | 82 | 1018.0 |
| 20260502071349 | 58 | 266 | 1.0 | 3.0 | 0.00 | 0.00 | 0.00 | 82 | 1018.0 |
| 20260502071028 | 58 | 266 | 1.0 | 3.0 | 0.00 | 0.00 | 0.00 | 82 | 1018.1 |
| 20260502070524 | 58 | 266 | 1.0 | 3.0 | 0.00 | 0.00 | 0.00 | 81 | 1018.0 |
| 20260502070348 | 58 | 266 | 1.0 | 3.0 | 0.00 | 0.00 | 0.00 | 81 | 1018.1 |
| 20260502070320 | 57 | 264 | 1.0 | 4.0 | 0.00 | 0.00 | 0.00 | 81 | 1018.1 |
| 20260502070113 | 58 | 266 | 1.0 | 4.0 | 0.00 | 0.00 | 0.00 | 81 | 1018.1 |
| 20260502065618 | 57 | 266 | 1.0 | 4.0 | 0.00 | 0.00 | 0.00 | 82 | 1018.1 |
| 20260502065023 | 57 | 260 | 1.0 | 4.0 | 0.00 | 0.00 | 0.00 | 81 | 1018.1 |
| 20260502064524 | 57 | 261 | 1.0 | 3.0 | 0.00 | 0.00 | 0.00 | 81 | 1018.0 |
| 20260502064349 | 57 | 258 | 1.0 | 3.0 | 0.00 | 0.00 | 0.00 | 81 | 1018.0 |
| 20260502064019 | 57 | 258 | 2.0 | 3.0 | 0.00 | 0.00 | 0.00 | 80 | 1018.0 |
| 20260502063520 | 56 | 257 | 2.0 | 4.0 | 0.00 | 0.00 | 0.00 | 79 | 1018.1 |
| 20260502063350 | 56 | 254 | 2.0 | 4.0 | 0.00 | 0.00 | 0.00 | 79 | 1018.1 |
| 20260502063020 | 56 | 260 | 2.0 | 4.0 | 0.00 | 0.00 | 0.00 | 78 | 1018.1 |
| 20260502062520 | 56 | 256 | 2.0 | 4.0 | 0.00 | 0.00 | 0.00 | 78 | 1018.1 |
| 20260502062349 | 56 | 260 | 1.0 | 4.0 | 0.00 | 0.00 | 0.00 | 77 | 1018.1 |
| 20260502062019 | 56 | 260 | 1.0 | 4.0 | 0.00 | 0.00 | 0.00 | 78 | 1018.1 |
| 20260502061519 | 56 | 265 | 1.0 | 4.0 | 0.00 | 0.00 | 0.00 | 78 | 1018.0 |
| 20260502061347 | 55 | 264 | 1.0 | 4.0 | 0.00 | 0.00 | 0.00 | 78 | 1018.0 |
| 20260502061020 | 55 | 265 | 2.0 | 4.0 | 0.00 | 0.00 | 0.00 | 78 | 1018.1 |
| 20260502060520 | 55 | 258 | 2.0 | 5.0 | 0.00 | 0.00 | 0.00 | 78 | 1017.9 |
| 20260502060350 | 55 | 258 | 2.0 | 5.0 | 0.00 | 0.00 | 0.00 | 78 | 1018.0 |
| 20260502060020 | 55 | 258 | 1.0 | 5.0 | 0.00 | 0.00 | 0.00 | 77 | 1018.1 |
| 20260502055829 | 55 | 200 | 0.0 | 0.0 | 0.00 | 0.00 | 0.00 | 73 | 1017.8 |
| 20260502055622 | 56 | 212 | 0.0 | 3.0 | 0.00 | 0.00 | 0.00 | 73 | 1017.8 |
| 20260502055015 | 55 | 200 | 0.0 | 0.0 | 0.00 | 0.00 | 0.00 | 74 | 1017.8 |
| 20260502054515 | 55 | 200 | 0.0 | 0.0 | 0.00 | 0.00 | 0.00 | 74 | 1017.7 |
| 20260502054343 | 55 | 200 | 0.0 | 0.0 | 0.00 | 0.00 | 0.00 | 74 | 1017.7 |
| 20260502054015 | 54 | 200 | 0.0 | 0.0 | 0.00 | 0.00 | 0.00 | 74 | 1017.7 |
| 20260502053515 | 54 | 200 | 0.0 | 0.0 | 0.00 | 0.00 | 0.00 | 75 | 1017.7 |
| 20260502053344 | 54 | 200 | 0.0 | 0.0 | 0.00 | 0.00 | 0.00 | 75 | 1017.7 |
| 20260502053014 | 53 | 200 | 0.0 | 0.0 | 0.00 | 0.00 | 0.00 | 77 | 1017.7 |
| 20260502052514 | 53 | 200 | 0.0 | 0.0 | 0.00 | 0.00 | 0.00 | 78 | 1017.8 |
| 20260502052345 | 53 | 200 | 0.0 | 0.0 | 0.00 | 0.00 | 0.00 | 78 | 1017.8 |
| 20260502052016 | 52 | 200 | 0.0 | 0.0 | 0.00 | 0.00 | 0.00 | 79 | 1017.8 |
| 20260502051516 | 51 | 200 | 0.0 | 1.0 | 0.00 | 0.00 | 0.00 | 80 | 1017.8 |
| 20260502051345 | 51 | 200 | 0.0 | 1.0 | 0.00 | 0.00 | 0.00 | 80 | 1017.9 |
| 20260502051009 | 51 | 200 | 0.0 | 1.0 | 0.00 | 0.00 | 0.00 | 80 | 1017.9 |
| 20260502050503 | 50 | 200 | 0.0 | 0.0 | 0.00 | 0.00 | 0.00 | 81 | 1017.8 |
| 20260502050348 | 50 | 200 | 0.0 | 0.0 | 0.00 | 0.00 | 0.00 | 81 | 1017.8 |
| 20260502045957 | 50 | 200 | 0.0 | 0.0 | 0.00 | 0.00 | 0.00 | 81 | 1017.8 |
| 20260502045451 | 49 | 200 | 0.0 | 0.0 | 0.00 | 0.00 | 0.00 | 81 | 1017.8 |
| 20260502045345 | 49 | 200 | 0.0 | 0.0 | 0.00 | 0.00 | 0.00 | 81 | 1017.8 |
| 20260502044948 | 49 | 200 | 0.0 | 2.0 | 0.00 | 0.00 | 0.00 | 80 | 1017.9 |
| 20260502044448 | 49 | 200 | 0.0 | 2.0 | 0.00 | 0.00 | 0.00 | 80 | 1017.8 |
| 20260502044347 | 49 | 200 | 0.0 | 2.0 | 0.00 | 0.00 | 0.00 | 80 | 1017.9 |
| 20260502043948 | 49 | 200 | 0.0 | 2.0 | 0.00 | 0.00 | 0.00 | 79 | 1017.9 |
| 20260502043445 | 49 | 199 | 0.0 | 0.0 | 0.00 | 0.00 | 0.00 | 79 | 1017.7 |
| 20260502043344 | 49 | 199 | 0.0 | 0.0 | 0.00 | 0.00 | 0.00 | 79 | 1017.6 |
| 20260502042946 | 49 | 199 | 0.0 | 1.0 | 0.00 | 0.00 | 0.00 | 79 | 1017.7 |
| 20260502042440 | 49 | 199 | 0.0 | 2.0 | 0.00 | 0.00 | 0.00 | 79 | 1017.8 |
| 20260502042344 | 49 | 199 | 0.0 | 2.0 | 0.00 | 0.00 | 0.00 | 79 | 1017.8 |
| 20260502041938 | 49 | 199 | 0.0 | 2.0 | 0.00 | 0.00 | 0.00 | 79 | 1017.9 |
| 20260502041436 | 49 | 199 | 0.0 | 2.0 | 0.00 | 0.00 | 0.00 | 78 | 1017.8 |
| 20260502041344 | 49 | 199 | 0.0 | 2.0 | 0.00 | 0.00 | 0.00 | 78 | 1017.8 |
| 20260502040934 | 49 | 199 | 0.0 | 2.0 | 0.00 | 0.00 | 0.00 | 78 | 1018.0 |
| 20260502040434 | 49 | 199 | 0.0 | 1.0 | 0.00 | 0.00 | 0.00 | 78 | 1017.9 |
| 20260502040344 | 49 | 199 | 0.0 | 1.0 | 0.00 | 0.00 | 0.00 | 78 | 1017.8 |
| 20260502035932 | 49 | 199 | 0.0 | 0.0 | 0.00 | 0.00 | 0.00 | 78 | 1017.9 |
| 20260502035428 | 49 | 199 | 0.0 | 3.0 | 0.00 | 0.00 | 0.00 | 78 | 1017.9 |
| 20260502035341 | 49 | 199 | 0.0 | 3.0 | 0.00 | 0.00 | 0.00 | 78 | 1017.9 |
| 20260502034929 | 50 | 199 | 0.0 | 3.0 | 0.00 | 0.00 | 0.00 | 78 | 1018.0 |
| 20260502034429 | 50 | 150 | 0.0 | 0.0 | 0.00 | 0.00 | 0.00 | 77 | 1018.1 |
| 20260502034343 | 50 | 150 | 0.0 | 0.0 | 0.00 | 0.00 | 0.00 | 77 | 1018.0 |
| 20260502033930 | 50 | 150 | 0.0 | 0.0 | 0.00 | 0.00 | 0.00 | 77 | 1018.0 |
| 20260502033430 | 50 | 150 | 0.0 | 0.0 | 0.00 | 0.00 | 0.00 | 77 | 1018.1 |
| 20260502033341 | 50 | 150 | 0.0 | 0.0 | 0.00 | 0.00 | 0.00 | 77 | 1018.1 |
| 20260502032927 | 50 | 150 | 0.0 | 0.0 | 0.00 | 0.00 | 0.00 | 77 | 1018.1 |
| 20260502032425 | 50 | 150 | 0.0 | 0.0 | 0.00 | 0.00 | 0.00 | 77 | 1018.1 |
| 20260502032345 | 50 | 150 | 0.0 | 0.0 | 0.00 | 0.00 | 0.00 | 77 | 1018.1 |
| 20260502031922 | 50 | 150 | 0.0 | 0.0 | 0.00 | 0.00 | 0.00 | 77 | 1018.1 |
| 20260502031422 | 50 | 150 | 0.0 | 0.0 | 0.00 | 0.00 | 0.00 | 77 | 1018.0 |
| 20260502031343 | 50 | 150 | 0.0 | 0.0 | 0.00 | 0.00 | 0.00 | 77 | 1018.1 |
| 20260502030918 | 50 | 150 | 0.0 | 0.0 | 0.00 | 0.00 | 0.00 | 77 | 1018.1 |
| 20260502030417 | 50 | 150 | 0.0 | 0.0 | 0.00 | 0.00 | 0.00 | 76 | 1018.2 |
| 20260502030341 | 50 | 150 | 0.0 | 0.0 | 0.00 | 0.00 | 0.00 | 76 | 1018.2 |
| 20260502025912 | 50 | 150 | 0.0 | 0.0 | 0.00 | 0.00 | 0.00 | 76 | 1018.3 |
| 20260502025406 | 50 | 150 | 0.0 | 0.0 | 0.00 | 0.00 | 0.00 | 76 | 1018.2 |
| 20260502025343 | 50 | 150 | 0.0 | 0.0 | 0.00 | 0.00 | 0.00 | 76 | 1018.3 |
| 20260502024859 | 50 | 150 | 0.0 | 0.0 | 0.00 | 0.00 | 0.00 | 76 | 1018.2 |
| 20260502024342 | 50 | 150 | 0.0 | 0.0 | 0.00 | 0.00 | 0.00 | 76 | 1018.4 |
| 20260502023847 | 50 | 150 | 0.0 | 0.0 | 0.00 | 0.00 | 0.00 | 75 | 1018.4 |
| 20260502023342 | 50 | 150 | 0.0 | 0.0 | 0.00 | 0.00 | 0.00 | 75 | 1018.4 |
| 20260502022835 | 51 | 150 | 0.0 | 0.0 | 0.00 | 0.00 | 0.00 | 75 | 1018.4 |
| 20260502022329 | 51 | 150 | 0.0 | 0.0 | 0.00 | 0.00 | 0.00 | 75 | 1018.5 |
| 20260502021823 | 51 | 150 | 0.0 | 0.0 | 0.00 | 0.00 | 0.00 | 75 | 1018.4 |